TimeAST,TemperatureF,Dew PointF,Humidity,Sea Level PressureIn,VisibilityMPH,Wind Direction,Wind SpeedMPH,Gust SpeedMPH,PrecipitationIn,Events,Conditions,WindDirDegrees,DateUTC
12:58 AM,-21.6,-29.9,65,30.09,6.2,East,12.7,-,N/A,,Clear,90,2013-01-14 04:58:00
1:58 AM,-23.4,-29.9,72,30.07,6.2,East,9.2,-,N/A,,Clear,90,2013-01-14 05:58:00
2:58 AM,-22.4,-29.9,68,30.06,6.2,East,11.5,-,N/A,,Clear,100,2013-01-14 06:58:00
3:58 AM,-23.6,-29.9,72,30.03,6.2,East,10.4,-,N/A,,Clear,90,2013-01-14 07:58:00
4:58 AM,-21.1,-29.9,64,30.02,6.2,East,11.5,-,N/A,,Clear,100,2013-01-14 08:58:00
5:58 AM,-22.0,-29.9,67,30.00,6.2,East,10.4,-,N/A,,Clear,90,2013-01-14 09:58:00
6:58 AM,-21.5,-29.9,65,29.99,6.2,East,10.4,-,N/A,,Clear,90,2013-01-14 10:58:00
7:58 AM,-23.3,-29.9,71,29.97,6.2,East,8.1,-,N/A,,Clear,80,2013-01-14 11:58:00
8:58 AM,-22.0,-29.9,67,29.95,6.2,East,10.4,-,N/A,,Clear,90,2013-01-14 12:58:00
9:58 AM,-23.3,-29.9,71,29.95,6.2,East,12.7,-,N/A,,Clear,90,2013-01-14 13:58:00
10:58 AM,-23.4,-29.9,72,29.93,6.2,East,13.8,-,N/A,,Clear,90,2013-01-14 14:58:00
11:58 AM,-21.3,-28.8,68,29.93,6.2,East,15.0,-,N/A,,Clear,100,2013-01-14 15:58:00
12:58 PM,-21.6,-27.8,73,29.94,6.2,East,13.8,-,N/A,,Clear,100,2013-01-14 16:58:00
1:58 PM,-21.8,-27.6,75,29.94,6.2,East,13.8,-,N/A,,Clear,90,2013-01-14 17:58:00
2:58 PM,-20.0,-26.0,74,29.95,6.2,East,11.5,-,N/A,,Clear,100,2013-01-14 18:58:00
3:58 PM,-23.4,-29.6,73,29.94,6.2,East,16.1,-,N/A,,Clear,90,2013-01-14 19:58:00
4:58 PM,-21.8,-27.8,74,29.96,6.2,East,10.4,-,N/A,,Clear,90,2013-01-14 20:58:00
5:58 PM,-22.2,-28.1,74,29.96,6.2,East,11.5,-,N/A,,Clear,90,2013-01-14 21:58:00
6:58 PM,-21.6,-28.5,71,29.96,6.2,East,8.1,-,N/A,,Clear,80,2013-01-14 22:58:00
7:58 PM,-23.3,-29.9,71,29.96,6.2,East,15.0,-,N/A,,Clear,90,2013-01-14 23:58:00
8:58 PM,-19.3,-28.8,62,29.95,6.2,East,11.5,-,N/A,,Clear,80,2013-01-15 00:58:00
9:58 PM,-20.6,-29.9,62,29.96,6.2,ENE,8.1,-,N/A,,Clear,70,2013-01-15 01:58:00
10:58 PM,-21.6,-29.9,65,29.94,6.2,East,17.3,-,N/A,,Clear,90,2013-01-15 02:58:00
11:58 PM,-23.3,-29.9,71,29.93,6.2,East,16.1,-,N/A,,Clear,80,2013-01-15 03:58:00